Location: Deer Lodge Site
(39.6809°N, 119.9392°W)
Time: 19:53:54
(UTC-07:00)

Amateur Radio Satellites - All Passes

Search period start: 26 July 2017 19:23
Search period end: 27 July 2017 19:23
Location: Deer Lodge Site, 39.6809°N, 119.9392°W

Satellite Date Start Highest point End Downlink Frequencies (MHz)
Time Altitude Azimuth
ISS 26 Jul 19:27:22 19:29:32 17° 131° (SE) 19:31:40 437.550
LilacSat-2 26 Jul 19:29:02 19:30:49 13° 268° (W) 19:32:37 437.200
ZACube-1 26 Jul 19:30:40 19:33:02 14° 65° (ENE) 19:35:22 437.345
XW-2F 26 Jul 19:40:59 19:41:40 10° 269° (W) 19:42:20 145.980 - 146.000
CUTE-I 26 Jul 19:46:08 19:49:56 19° 267° (W) 19:53:45 437.470
XW-2A 26 Jul 19:50:10 19:53:33 87° 259° (W) 19:56:56 145.665 - 145.685
Oscar 11 26 Jul 19:53:00 19:55:42 16° 66° (ENE) 19:58:24 .
CUBEBUG 2 26 Jul 20:00:47 20:05:29 86° 254° (WSW) 20:10:07 437.445
YUBILEINY 26 Jul 20:02:25 20:10:52 50° 284° (WNW) 20:19:24 435.215
CUTE 1.7 + AOD 2 26 Jul 20:02:28 20:06:24 40° 262° (W) 20:10:22 437.475
nSIGHT-1 26 Jul 20:06:41 20:09:45 44° 137° (SE) 20:12:52 .
AO-73 26 Jul 20:07:57 20:11:50 31° 71° (ENE) 20:15:40 145.935
SEEDS 26 Jul 20:10:50 20:14:52 51° 260° (W) 20:18:57 437.485
STRAND 1 26 Jul 20:20:32 20:25:37 64° 102° (ESE) 20:30:40 437.568
AAUSAT CUBESAT 2 26 Jul 20:48:46 20:52:38 41° 262° (W) 20:56:34 437.432
UWE-3 26 Jul 20:55:23 20:59:37 37° 262° (W) 21:03:46 435.000/436.395/437.385
Tancredo 1 26 Jul 20:58:41 21:01:01 21° 335° (NNW) 21:03:21 437.200
BEESAT 3 26 Jul 20:59:32 21:03:18 38° 53° (NE) 21:06:59 437.485
ISS 26 Jul 21:02:33 21:05:44 49° 327° (NNW) 21:08:54 437.550
ZACube-1 26 Jul 21:04:33 21:08:52 52° 260° (W) 21:13:08 437.345
HO-68 26 Jul 21:06:42 21:11:34 19° 268° (W) 21:16:28 435.675
AO-85 26 Jul 21:21:17 21:25:30 68° 57° (ENE) 21:30:02 145.980
Oscar 11 26 Jul 21:27:23 21:31:28 42° 262° (W) 21:35:34 .
EO-88 26 Jul 21:31:48 21:34:55 28° 71° (ENE) 21:38:03 145.990 - 145.960
DELFI C3 26 Jul 21:33:11 21:36:59 50° 74° (ENE) 21:40:50 145.870
RS-15 26 Jul 21:36:59 21:45:49 22° 12° (NNE) 21:54:26 29.354- 29.394
FO-29 26 Jul 21:39:33 21:45:21 28° 91° (E) 21:50:34 435.910
nSIGHT-1 26 Jul 21:43:36 21:46:17 24° 334° (NNW) 21:48:59 .
BEESAT 2 26 Jul 21:43:48 21:47:38 38° 53° (NE) 21:51:24 435.950
AO-73 26 Jul 21:44:40 21:48:04 22° 265° (W) 21:51:26 145.935
STRAND 1 26 Jul 22:01:16 22:04:14 16° 298° (WNW) 22:07:10 437.568
UNISAT 6 26 Jul 22:18:11 22:21:50 26° 96° (E) 22:25:24 437.425
BEESAT 3 26 Jul 22:37:53 22:40:34 17° 249° (WSW) 22:43:12 437.485
ISS 26 Jul 22:41:05 22:42:48 13° 345° (NNW) 22:44:32 437.550
ESTCUBE 1 26 Jul 22:52:17 22:55:56 25° 68° (ENE) 22:59:36 437.505/2401.250
TIGRISAT 26 Jul 23:01:21 23:05:40 77° 103° (ESE) 23:09:54 435.000
LO-87 26 Jul 23:02:19 23:05:49 47° 74° (ENE) 23:09:21 145.935 - 145.965
AO-85 26 Jul 23:03:53 23:05:27 12° 251° (WSW) 23:07:04 145.980
EO-88 26 Jul 23:06:14 23:08:37 17° 266° (W) 23:11:00 145.990 - 145.960
DELFI C3 26 Jul 23:10:58 23:12:03 11° 269° (W) 23:13:08 145.870
PRISM 26 Jul 23:13:34 23:17:46 86° 279° (W) 23:21:56 437.425
BEESAT 2 26 Jul 23:22:17 23:25:04 18° 249° (WSW) 23:27:49 435.950
nSIGHT-1 26 Jul 23:22:53 23:23:36 11° 354° (N) 23:24:18 .
FO-29 26 Jul 23:23:59 23:30:41 48° 292° (WNW) 23:36:36 435.910
VELOX 1 26 Jul 23:30:17 23:32:42 15° 64° (ENE) 23:35:08 145.980
AIST 2D 26 Jul 23:32:57 23:35:29 19° 94° (E) 23:38:01 435.315
DUCHIFAT 1 26 Jul 23:49:44 23:50:18 10° 90° (E) 23:50:52 145.980
RS-15 26 Jul 23:50:58 00:02:36 47° 44° (NE) 00:13:36 29.354- 29.394
POLYITAN 1 26 Jul 23:53:38 23:56:09 15° 92° (E) 23:58:40 437.675
UNISAT 6 26 Jul 23:54:55 23:58:26 25° 292° (WNW) 00:01:54 437.425
M-CUBED/EXP-1 PRIME 26 Jul 23:57:17 00:01:58 84° 286° (WNW) 00:06:36 437.505
SPROUT 27 Jul 00:03:27 00:07:24 36° 71° (ENE) 00:11:21 437.525
QB50P2 27 Jul 00:06:04 00:09:30 24° 95° (E) 00:12:54 145.880/145.840
Tancredo 1 27 Jul 00:12:45 00:13:47 11° 15° (NNE) 00:14:49 437.200
NANOSAT C BR1 27 Jul 00:15:56 00:19:25 25° 96° (E) 00:22:51 145.865
O/OREOS (USA 219) 27 Jul 00:16:01 00:19:38 23° 59° (ENE) 00:23:13 437.305
EO-79 27 Jul 00:17:09 00:20:50 29° 96° (E) 00:24:29 145.935-145.965
ISS 27 Jul 00:19:36 00:20:25 11° 6° (N) 00:21:14 437.550
ESTCUBE 1 27 Jul 00:28:45 00:32:37 29° 264° (W) 00:36:30 437.505/2401.250
nSIGHT-1 27 Jul 00:59:28 01:01:08 13° 15° (NNE) 01:02:49 .
DX 1 27 Jul 01:03:00 01:07:07 43° 72° (ENE) 01:11:16 434.975-435.025
VELOX 1 27 Jul 01:04:22 01:08:40 53° 259° (W) 01:13:02 145.980
AIST 2D 27 Jul 01:05:51 01:08:37 22° 289° (WNW) 01:11:24 435.315
50 SAT 27 Jul 01:18:35 01:21:58 80° 258° (WSW) 01:25:24 437.505
DUCHIFAT 1 27 Jul 01:22:12 01:26:20 60° 285° (WNW) 01:30:25 145.980
POLYITAN 1 27 Jul 01:28:10 01:32:06 40° 288° (WNW) 01:36:01 437.675
Gurwin Techsat 1B 27 Jul 01:28:42 01:30:04 11° 89° (E) 01:31:27 435.225
M-CUBED/EXP-1 PRIME 27 Jul 01:34:53 01:35:36 10° 304° (NW) 01:36:19 437.505
SPROUT 27 Jul 01:40:23 01:43:23 18° 267° (W) 01:46:24 437.525
UKube-1 27 Jul 01:40:55 01:45:13 77° 75° (ENE) 01:49:33 .
QB50P2 27 Jul 01:41:41 01:45:14 27° 291° (WNW) 01:48:45 145.880/145.840
BUGSAT 1 27 Jul 01:42:17 01:46:21 60° 101° (E) 01:50:19 437.445
Tancredo 1 27 Jul 01:46:56 01:49:46 43° 33° (NNE) 01:52:36 437.200
NANOSAT C BR1 27 Jul 01:51:35 01:55:02 25° 291° (WNW) 01:58:27 145.865
EO-79 27 Jul 01:53:09 01:56:25 22° 292° (WNW) 01:59:40 145.935-145.965
O/OREOS (USA 219) 27 Jul 01:55:02 01:59:04 33° 256° (WSW) 02:03:05 437.305
ISS 27 Jul 01:55:05 01:57:49 24° 26° (NNE) 02:00:32 437.550
RS-15 27 Jul 02:03:49 02:15:22 57° 249° (WSW) 02:26:20 29.354- 29.394
Oscar 19 27 Jul 02:21:37 02:26:44 60° 101° (E) 02:31:51 437.125/150
BEESAT 27 Jul 02:28:34 02:32:30 26° 67° (ENE) 02:36:27 436.000
nSIGHT-1 27 Jul 02:35:00 02:38:09 48° 34° (NE) 02:41:17 .
DX 1 27 Jul 02:40:49 02:43:30 16° 267° (W) 02:46:11 434.975-435.025
ITUPSAT 1 27 Jul 02:42:51 02:47:11 35° 69° (ENE) 02:51:31 437.325
Gurwin Techsat 1B 27 Jul 03:05:17 03:10:39 84° 285° (WNW) 03:15:57 435.225
MOZHAYETS 4 27 Jul 03:09:13 03:13:36 47° 72° (ENE) 03:17:59
BUGSAT 1 27 Jul 03:20:03 03:21:09 11° 297° (WNW) 03:22:14 437.445
Tancredo 1 27 Jul 03:23:02 03:24:55 16° 229° (SW) 03:26:47 437.200
ISS 27 Jul 03:31:17 03:34:24 44° 223° (SW) 03:37:31 437.550
CUBESAT XI-V 27 Jul 03:50:32 03:54:15 25° 68° (ENE) 03:57:59 437.345
PCSat 27 Jul 03:55:21 03:59:29 23° 106° (ESE) 04:03:39 145.827
Oscar 19 27 Jul 04:02:19 04:05:33 17° 297° (WNW) 04:08:47 437.125/150
BEESAT 27 Jul 04:05:53 04:10:08 32° 263° (W) 04:14:24 436.000
nSIGHT-1 27 Jul 04:12:08 04:14:16 16° 229° (SW) 04:16:24 .
AO-7 27 Jul 04:16:26 04:24:37 55° 103° (ESE) 04:32:42 .
ITAMSAT 1 27 Jul 04:18:04 04:23:10 54° 100° (E) 04:28:14 435.822/435.867
YUBILEINY 27 Jul 04:18:46 04:23:41 16° 61° (ENE) 04:28:34 435.215
ITUPSAT 1 27 Jul 04:21:16 04:25:03 23° 265° (W) 04:28:51 437.325
MOZHAYETS 4 27 Jul 04:48:12 04:50:59 16° 268° (W) 04:53:45
Gurwin Techsat 1B 27 Jul 04:48:20 04:49:43 11° 302° (WNW) 04:51:07 435.225
KKS-1 27 Jul 05:10:08 05:14:36 82° 257° (WSW) 05:19:07 437.445
CUBESAT XI-V 27 Jul 05:27:26 05:31:28 30° 264° (W) 05:35:32 437.345
STARS 27 Jul 05:33:18 05:37:42 74° 75° (ENE) 05:42:08 437.465
DOVE 4 27 Jul 05:36:41 05:40:49 23° 92° (E) 05:44:48 437.250
PCSat 27 Jul 05:37:17 05:42:31 48° 303° (WNW) 05:47:47 145.827
ITAMSAT 1 27 Jul 05:58:40 06:02:11 19° 297° (WNW) 06:05:41 435.822/435.867
STRAND 1 27 Jul 06:01:13 06:02:11 10° 59° (ENE) 06:03:09 437.568
SO-50 27 Jul 06:02:31 06:07:01 68° 120° (ESE) 06:11:30 436.795
XW-2D 27 Jul 06:08:12 06:10:11 14° 92° (E) 06:12:09 145.860 - 145.880
AO-7 27 Jul 06:09:44 06:17:00 35° 301° (WNW) 06:24:15 .
YUBILEINY 27 Jul 06:13:11 06:22:00 81° 82° (E) 06:30:42 435.215
XW-2B 27 Jul 06:17:49 06:20:23 17° 94° (E) 06:22:57 145.730 - 145.750
CUTE-I 27 Jul 06:23:03 06:27:06 22° 94° (E) 06:31:07 437.470
NUDT-PHONESAT 27 Jul 06:33:14 06:35:58 19° 95° (E) 06:38:41 437.300
XW-2C 27 Jul 06:34:42 06:37:59 28° 96° (E) 06:41:17 145.795 - 145.815
HO-68 27 Jul 06:47:33 06:50:43 13° 89° (E) 06:53:52 435.675
KAITUO 1B 27 Jul 06:50:39 06:54:04 33° 98° (E) 06:57:29 145.475/437.950
LilacSat-2 27 Jul 07:00:31 07:04:18 67° 101° (E) 07:08:06 437.200
XW-2F 27 Jul 07:10:13 07:13:59 80° 102° (ESE) 07:17:45 145.980 - 146.000
DOVE 4 27 Jul 07:13:43 07:18:36 40° 290° (WNW) 07:23:17 437.250
STRAND 1 27 Jul 07:35:22 07:40:32 84° 73° (ENE) 07:45:42 437.568
XW-2D 27 Jul 07:41:00 07:44:29 36° 287° (WNW) 07:47:58 145.860 - 145.880
SO-50 27 Jul 07:45:05 07:47:55 16° 317° (NW) 07:50:46 436.795
CUTE 1.7 + AOD 2 27 Jul 07:47:49 07:51:42 34° 97° (E) 07:55:36 437.475
XW-2B 27 Jul 07:51:19 07:54:35 29° 289° (WNW) 07:57:52 145.730 - 145.750
FO-29 27 Jul 07:51:40 07:55:56 16° 55° (NE) 08:00:12 435.910
CUBEBUG 2 27 Jul 07:53:29 07:56:33 19° 93° (E) 07:59:34 437.445
SEEDS 27 Jul 07:55:31 07:59:05 26° 95° (E) 08:02:39 437.485
CUTE-I 27 Jul 08:02:14 08:07:21 46° 290° (WNW) 08:12:24 437.470
NUDT-PHONESAT 27 Jul 08:06:47 08:09:48 24° 289° (WNW) 08:12:49 437.300
XW-2C 27 Jul 08:09:22 08:11:58 18° 292° (WNW) 08:14:35 145.795 - 145.815
YUBILEINY 27 Jul 08:11:56 08:17:39 20° 281° (WNW) 08:23:22 435.215
KAITUO 1B 27 Jul 08:25:35 08:27:47 15° 293° (WNW) 08:29:59 145.475/437.950
AAUSAT CUBESAT 2 27 Jul 08:31:29 08:35:11 30° 97° (E) 08:38:52 437.432
HO-68 27 Jul 08:32:10 08:39:22 84° 105° (ESE) 08:46:32 435.675
XW-2A 27 Jul 08:45:11 08:48:30 71° 284° (WNW) 08:51:49 145.665 - 145.685
UWE-3 27 Jul 08:45:31 08:49:31 43° 99° (E) 08:53:28 435.000/436.395/437.385
ZACube-1 27 Jul 08:53:49 08:57:26 29° 96° (E) 09:01:02 437.345
Oscar 11 27 Jul 09:15:12 09:19:09 35° 97° (E) 09:23:06 .
UNISAT 6 27 Jul 09:16:03 09:19:42 24° 68° (ENE) 09:23:18 437.425
STRAND 1 27 Jul 09:19:25 09:20:17 10° 271° (W) 09:21:10 437.568
CUTE 1.7 + AOD 2 27 Jul 09:24:15 09:27:17 19° 293° (WNW) 09:30:20 437.475
CUBEBUG 2 27 Jul 09:29:29 09:33:14 31° 290° (WNW) 09:36:55 437.445
SEEDS 27 Jul 09:31:12 09:34:39 25° 291° (WNW) 09:38:06 437.485
FO-29 27 Jul 09:31:58 09:39:36 73° 73° (ENE) 09:47:27 435.910
AO-73 27 Jul 09:32:05 09:36:13 75° 101° (E) 09:40:20 145.935
TIGRISAT 27 Jul 09:58:28 10:03:02 60° 74° (ENE) 10:07:32 435.000
PRISM 27 Jul 10:01:33 10:05:34 57° 74° (ENE) 10:09:38 437.425
AAUSAT CUBESAT 2 27 Jul 10:07:16 10:10:27 21° 292° (WNW) 10:13:37 437.432
NO-84 27 Jul 10:19:33 10:22:25 53° 132° (SE) 10:25:29 435.350 FM
HO-68 27 Jul 10:21:31 10:26:13 19° 304° (NW) 10:30:54 435.675
UWE-3 27 Jul 10:23:15 10:25:35 15° 295° (WNW) 10:27:55 435.000/436.395/437.385
ZACube-1 27 Jul 10:30:24 10:33:33 21° 292° (WNW) 10:36:41 437.345
EO-88 27 Jul 10:34:16 10:37:43 40° 99° (E) 10:41:09 145.990 - 145.960
M-CUBED/EXP-1 PRIME 27 Jul 10:42:25 10:46:04 78° 253° (WSW) 10:50:05 437.505
DELFI C3 27 Jul 10:45:14 10:49:16 85° 283° (WNW) 10:53:17 145.870
POLYITAN 1 27 Jul 10:46:37 10:48:05 12° 63° (ENE) 10:49:35 437.675
Oscar 11 27 Jul 10:51:55 10:55:02 20° 293° (WNW) 10:58:09 .
UNISAT 6 27 Jul 10:52:02 10:56:13 33° 263° (W) 11:00:21 437.425
QB50P2 27 Jul 10:58:21 11:01:09 17° 66° (ENE) 11:03:58 145.880/145.840
NANOSAT C BR1 27 Jul 11:07:38 11:10:30 18° 66° (ENE) 11:13:22 145.865
EO-79 27 Jul 11:09:01 11:12:10 21° 67° (ENE) 11:15:20 145.935-145.965
FO-29 27 Jul 11:19:22 11:25:10 23° 270° (W) 11:31:07 435.910
AO-85 27 Jul 11:35:59 11:39:12 23° 113° (ESE) 11:42:22 145.980
TIGRISAT 27 Jul 11:38:02 11:40:03 13° 269° (W) 11:42:02 435.000
AIST 2D 27 Jul 11:38:17 11:41:44 76° 258° (WSW) 11:45:14 435.315
PRISM 27 Jul 11:40:22 11:41:11 10° 269° (W) 11:42:01 437.425
NO-84 27 Jul 11:58:02 12:00:08 17° 333° (NNW) 12:02:20 435.350 FM
LO-87 27 Jul 12:03:09 12:06:44 68° 101° (E) 12:10:17 145.935 - 145.965
EO-88 27 Jul 12:09:26 12:11:00 12° 294° (WNW) 12:12:34 145.990 - 145.960
DUCHIFAT 1 27 Jul 12:12:27 12:16:41 85° 77° (ENE) 12:20:57 145.980
POLYITAN 1 27 Jul 12:19:06 12:23:20 63° 259° (W) 12:27:34 437.675
ESTCUBE 1 27 Jul 12:21:03 12:25:33 61° 101° (E) 12:30:02 437.505/2401.250
BEESAT 3 27 Jul 12:25:01 12:29:00 89° 121° (ESE) 12:33:04 437.485
BUGSAT 1 27 Jul 12:30:45 12:34:39 37° 72° (ENE) 12:38:33 437.445
QB50P2 27 Jul 12:32:37 12:36:37 39° 262° (W) 12:40:39 145.880/145.840
NANOSAT C BR1 27 Jul 12:41:56 12:45:54 38° 262° (W) 12:49:52 145.865
PCSat 27 Jul 12:43:26 12:47:11 19° 45° (NE) 12:50:55 145.827
EO-79 27 Jul 12:43:52 12:47:42 33° 263° (W) 12:51:34 145.935-145.965
Gurwin Techsat 1B 27 Jul 12:47:51 12:51:24 18° 63° (ENE) 12:54:58 435.225
VELOX 1 27 Jul 12:55:16 12:59:11 29° 97° (E) 13:03:04 145.980
BEESAT 2 27 Jul 13:11:05 13:15:04 88° 301° (WNW) 13:19:07 435.950
AO-85 27 Jul 13:15:59 13:19:27 28° 309° (NW) 13:22:52 145.980
SPROUT 27 Jul 13:25:09 13:29:26 79° 103° (ESE) 13:33:40 437.525
AO-7 27 Jul 13:26:43 13:31:08 16° 48° (NE) 13:35:33 .
UKube-1 27 Jul 13:30:22 13:32:28 13° 92° (E) 13:34:33 .
Oscar 19 27 Jul 13:37:33 13:42:39 81° 75° (ENE) 13:47:48 437.125/150
ESTCUBE 1 27 Jul 13:59:39 14:01:49 13° 297° (WNW) 14:03:58 437.505/2401.250
BEESAT 3 27 Jul 14:05:55 14:07:11 11° 319° (NW) 14:08:27 437.485
BUGSAT 1 27 Jul 14:07:17 14:10:06 17° 267° (W) 14:12:57 437.445
50 SAT 27 Jul 14:13:45 14:17:11 70° 284° (WNW) 14:20:35 437.505
RS-15 27 Jul 14:14:46 14:24:19 28° 102° (ESE) 14:33:58 29.354- 29.394
Gurwin Techsat 1B 27 Jul 14:25:38 14:30:51 58° 259° (W) 14:36:07 435.225
PCSat 27 Jul 14:25:44 14:31:09 73° 245° (WSW) 14:36:32 145.827
O/OREOS (USA 219) 27 Jul 14:27:24 14:31:16 29° 104° (ESE) 14:35:09 437.305
DX 1 27 Jul 14:27:35 14:32:00 88° 292° (WNW) 14:36:23 434.975-435.025
VELOX 1 27 Jul 14:31:52 14:35:29 25° 292° (WNW) 14:39:05 145.980
SO-50 27 Jul 14:34:28 14:38:52 47° 54° (NE) 14:43:17 436.795
BEESAT 2 27 Jul 14:52:22 14:53:27 11° 320° (NW) 14:54:32 435.950
UKube-1 27 Jul 15:04:33 15:08:46 51° 287° (WNW) 15:12:57 .
MOZHAYETS 4 27 Jul 15:07:10 15:08:40 11° 90° (E) 15:10:08
AO-7 27 Jul 15:14:06 15:22:22 69° 68° (ENE) 15:30:41 .
Oscar 19 27 Jul 15:21:19 15:22:33 11° 271° (W) 15:23:48 437.125/150
ITAMSAT 1 27 Jul 15:35:01 15:40:14 78° 74° (ENE) 15:45:29 435.822/435.867
BEESAT 27 Jul 16:05:59 16:10:44 68° 101° (ESE) 16:15:27 436.000
O/OREOS (USA 219) 27 Jul 16:06:55 16:10:38 25° 300° (WNW) 16:14:22 437.305
SO-50 27 Jul 16:15:51 16:18:58 18° 250° (WSW) 16:22:05 436.795
ITUPSAT 1 27 Jul 16:21:10 16:25:58 86° 280° (W) 16:30:42 437.325
RS-15 27 Jul 16:23:15 16:35:29 81° 303° (WNW) 16:47:56 29.354- 29.394
DOVE 4 27 Jul 16:41:02 16:44:48 22° 65° (ENE) 16:48:42 437.250
MOZHAYETS 4 27 Jul 16:41:42 16:46:13 64° 286° (WNW) 16:50:44
NO-84 27 Jul 16:52:57 16:56:19 31° 35° (NE) 16:59:57 435.350 FM
KKS-1 27 Jul 17:02:40 17:05:57 20° 94° (E) 17:09:12 437.445
AO-7 27 Jul 17:09:07 17:15:40 25° 265° (W) 17:22:19 .
XW-2C 27 Jul 17:16:32 17:18:21 13° 66° (ENE) 17:20:09 145.795 - 145.815
ITAMSAT 1 27 Jul 17:18:21 17:20:14 12° 270° (W) 17:22:09 435.822/435.867
HO-68 27 Jul 17:18:51 17:20:10 11° 50° (NE) 17:21:29 435.675
YUBILEINY 27 Jul 17:20:12 17:25:37 18° 78° (ENE) 17:31:01 435.215
CUBESAT XI-V 27 Jul 17:23:49 17:28:30 68° 102° (ESE) 17:33:10 437.345
STARS 27 Jul 17:25:02 17:27:18 14° 92° (E) 17:29:32 437.465
KAITUO 1B 27 Jul 17:30:59 17:33:03 15° 67° (ENE) 17:35:07 145.475/437.950
LilacSat-2 27 Jul 17:41:43 17:44:58 28° 71° (ENE) 17:48:12 437.200
CUTE-I 27 Jul 17:43:45 17:48:31 33° 68° (ENE) 17:53:17 437.470
BEESAT 27 Jul 17:45:41 17:47:55 13° 298° (WNW) 17:50:09 436.000
XW-2F 27 Jul 17:50:16 17:53:34 31° 72° (ENE) 17:56:54 145.980 - 146.000
Tancredo 1 27 Jul 18:16:00 18:17:39 14° 131° (SE) 18:19:18 437.200
DOVE 4 27 Jul 18:17:25 18:22:05 44° 262° (W) 18:27:03 437.250
XW-2D 27 Jul 18:20:42 18:24:26 88° 84° (E) 18:28:11 145.860 - 145.880
NO-84 27 Jul 18:30:15 18:33:50 35° 230° (SW) 18:37:38 435.350 FM
XW-2B 27 Jul 18:30:53 18:34:36 71° 259° (W) 18:38:21 145.730 - 145.750
KKS-1 27 Jul 18:38:29 18:42:36 36° 290° (WNW) 18:46:39 437.445
RS-15 27 Jul 18:39:52 18:50:15 30° 330° (NNW) 19:00:40 29.354- 29.394
CUTE 1.7 + AOD 2 27 Jul 18:40:00 18:43:15 22° 68° (ENE) 18:46:30 437.475
NUDT-PHONESAT 27 Jul 18:44:10 18:47:49 64° 260° (W) 18:51:27 437.300
SEEDS 27 Jul 18:47:05 18:49:44 17° 66° (ENE) 18:52:25 437.485
XW-2C 27 Jul 18:48:38 18:52:10 40° 262° (W) 18:55:43 145.795 - 145.815
CUBEBUG 2 27 Jul 18:50:46 18:53:50 18° 66° (ENE) 18:56:52 437.445
HO-68 27 Jul 18:59:24 19:06:23 58° 69° (ENE) 19:13:23 435.675
STARS 27 Jul 18:59:38 19:03:54 50° 288° (WNW) 19:08:08 437.465
CUBESAT XI-V 27 Jul 19:03:13 19:05:16 13° 297° (WNW) 19:07:19 437.345
KAITUO 1B 27 Jul 19:03:22 19:06:44 34° 262° (W) 19:10:08 145.475/437.950
nSIGHT-1 27 Jul 19:13:58 19:16:32 22° 132° (SE) 19:19:05 .
XW-2A 27 Jul 19:15:34 19:18:31 28° 72° (ENE) 19:21:28 145.665 - 145.685
LilacSat-2 27 Jul 19:16:38 19:19:14 18° 266° (W) 19:21:52 437.200
